DW3838 Weather Reports


Display with metric or nautical units.
time (UTC)temp
F
wind
direction
speed
MPH
gust
MPH
rain 1hr
in
rain 24hr
in
rain mn
in
humidity
%
barometer
mb
20260508064547 48 242 0.0 0.0 0.00 0.00 0.00 90 1017.9
20260508063027 48 242 0.0 0.0 0.00 0.00 0.00 89 1017.8
20260508061524 47 242 0.0 0.0 0.00 0.00 0.00 88 1017.9
20260508060029 47 242 0.0 0.0 0.00 0.00 0.00 88 1018.0
20260508054534 48 242 0.0 0.0 0.00 0.00 0.00 88 1017.8
20260508053022 49 242 0.0 0.0 0.00 0.00 0.00 87 1017.8
20260508051526 49 242 0.0 0.0 0.00 0.00 0.00 87 1017.8
20260508050032 50 242 0.0 0.0 0.00 0.00 0.00 87 1017.7
20260508044524 51 242 0.0 0.0 0.00 0.00 0.00 87 1017.7
20260508043025 52 242 0.0 0.0 0.00 0.00 0.00 87 1017.5
20260508041519 53 232 0.0 2.0 0.00 0.00 0.00 87 1017.3
20260508040020 53 212 0.0 0.0 0.00 0.00 0.00 87 1017.2
20260508034524 54 229 0.0 4.0 0.00 0.00 0.00 86 1017.0
20260508033018 55 228 0.0 4.0 0.00 0.00 0.00 86 1016.7
20260508031518 56 210 0.0 4.0 0.00 0.00 0.00 85 1016.7
20260508030017 57 222 0.0 3.0 0.00 0.00 0.00 84 1016.5
20260508024520 58 202 0.0 1.0 0.00 0.00 0.00 83 1016.4
20260508023016 59 204 0.0 5.0 0.00 0.00 0.00 82 1016.3
20260508021514 60 186 0.0 4.0 0.00 0.00 0.00 80 1016.4
20260508020014 61 181 0.0 7.0 0.00 0.00 0.00 79 1016.4
20260508014513 62 215 1.0 8.0 0.00 0.00 0.00 77 1016.5
20260508013012 64 184 0.0 7.0 0.00 0.00 0.00 75 1016.6
20260508011512 66 175 0.0 4.0 0.00 0.00 0.00 73 1016.6
20260508010021 67 196 0.0 7.0 0.00 0.00 0.00 71 1016.6
20260508004508 68 211 0.0 5.0 0.00 0.00 0.00 69 1016.8
20260508003008 69 190 0.0 3.0 0.00 0.00 0.00 67 1016.9
20260508001509 70 168 0.0 4.0 0.00 0.00 0.00 65 1016.9
20260508000008 69 192 1.0 5.0 0.00 0.00 0.00 66 1016.8
20260507234513 69 215 0.0 5.0 0.00 0.00 0.00 65 1016.8
20260507233008 70 175 0.0 7.0 0.00 0.00 0.00 68 1016.9
20260507231503 70 223 1.0 9.0 0.00 0.00 0.00 66 1017.0
20260507230003 72 138 3.0 7.0 0.00 0.00 0.00 63 1017.0
20260507224502 72 240 1.0 8.0 0.00 0.00 0.00 65 1017.1
20260507223103 71 193 0.0 7.0 0.00 0.00 0.00 68 1017.3
20260507221602 72 94 2.0 6.0 0.00 0.00 0.00 69 1017.5
20260507220054 71 223 0.0 5.0 0.00 0.00 0.00 70 1017.7
20260507214550 69 118 0.0 2.0 0.00 0.00 0.00 72 1017.8
20260507213045 69 110 0.0 9.0 0.00 0.00 0.00 73 1018.1
20260507211554 68 165 2.0 8.0 0.00 0.00 0.00 74 1018.3
20260507210047 68 188 1.0 8.0 0.00 0.00 0.00 73 1018.4
20260507204541 67 267 2.0 8.0 0.00 0.00 0.00 74 1018.6
20260507203037 67 191 1.0 6.0 0.00 0.00 0.00 75 1018.7
20260507201534 65 122 0.0 9.0 0.00 0.00 0.00 79 1018.9
20260507200031 64 199 3.0 6.0 0.00 0.00 0.00 81 1019.0
20260507194528 63 190 0.0 5.0 0.00 0.00 0.00 83 1019.0
20260507193026 62 246 1.0 6.0 0.00 0.00 0.00 84 1019.2
20260507191527 57 202 0.0 4.0 0.00 0.00 0.00 86 1019.4
20260507190022 58 202 1.0 7.0 0.00 0.00 0.00 90 1019.4
20260507184520 59 175 1.0 6.0 0.00 0.00 0.00 92 1019.6
20260507183018 58 172 0.0 0.0 0.00 0.00 0.00 93 1019.8
20260507181517 57 78 0.0 0.0 0.00 0.00 0.00 94 1019.8
20260507180013 56 125 0.0 0.0 0.00 0.00 0.00 94 1019.8
20260507174514 55 204 0.0 0.0 0.00 0.00 0.00 94 1019.8
20260507173013 54 241 0.0 0.0 0.00 0.00 0.00 94 1019.9
20260507171506 55 181 0.0 0.0 0.00 0.00 0.00 94 1019.9
20260507170005 54 165 0.0 0.0 0.00 0.00 0.00 94 1019.9
20260507164506 54 285 0.0 0.0 0.00 0.00 0.00 94 1019.9
20260507163003 53 230 0.0 0.0 0.00 0.00 0.00 94 1019.9
20260507161501 53 123 0.0 0.0 0.00 0.00 0.00 94 1019.9
20260507160117 53 219 0.0 0.0 0.00 0.00 0.00 94 1019.8
20260507154558 53 182 0.0 1.0 0.00 0.00 0.00 94 1019.7
20260507153057 53 281 0.0 0.0 0.00 0.00 0.00 94 1019.7
20260507151600 52 274 0.0 0.0 0.00 0.00 0.00 94 1019.8
20260507150056 52 290 0.0 0.0 0.00 0.00 0.00 94 1019.7
20260507144553 52 235 0.0 0.0 0.00 0.00 0.00 94 1019.6
20260507143058 52 259 0.0 0.0 0.00 0.00 0.00 94 1019.6
20260507141602 52 259 0.0 0.0 0.00 0.00 0.00 94 1019.5
20260507140109 52 259 0.0 0.0 0.00 0.00 0.00 94 1019.3
20260507134550 52 259 0.0 0.0 0.00 0.00 0.00 94 1019.1
20260507133054 52 259 0.0 0.0 0.00 0.00 0.00 94 1019.0
20260507131613 52 259 0.0 0.0 0.00 0.00 0.00 94 1018.9
20260507130048 52 259 0.0 0.0 0.00 0.00 0.00 94 1018.9
20260507124552 52 259 0.0 0.0 0.00 0.00 0.00 93 1018.9
20260507123046 52 259 0.0 0.0 0.00 0.00 0.00 94 1018.8
20260507121542 51 259 0.0 0.0 0.00 0.00 0.00 93 1018.7
20260507120042 51 235 0.0 0.0 0.00 0.00 0.00 93 1018.8
20260507114537 51 236 0.0 0.0 0.00 0.00 0.00 93 1018.9
20260507113100 51 236 0.0 0.0 0.00 0.00 0.00 93 1018.9
20260507111533 51 235 0.0 0.0 0.00 0.00 0.00 93 1019.0
20260507110029 51 236 0.0 0.0 0.00 0.00 0.00 93 1019.0
20260507104524 50 236 0.0 0.0 0.00 0.00 0.00 92 1019.0
20260507103124 50 235 0.0 0.0 0.00 0.00 0.00 92 1019.1
20260507101523 51 235 0.0 0.0 0.00 0.00 0.00 92 1019.1
20260507100029 50 235 0.0 0.0 0.00 0.00 0.00 92 1019.1
20260507094513 50 235 0.0 0.0 0.00 0.00 0.00 92 1019.2
20260507093014 50 235 0.0 0.0 0.00 0.00 0.00 92 1019.2
20260507091511 50 235 0.0 0.0 0.00 0.00 0.00 91 1019.3
20260507090007 50 235 0.0 0.0 0.00 0.00 0.00 91 1019.4
20260507084503 49 235 0.0 0.0 0.00 0.00 0.00 91 1019.4
20260507083001 49 235 0.0 0.0 0.00 0.00 0.00 90 1019.4
20260507081558 48 235 0.0 0.0 0.00 0.00 0.00 90 1019.3
20260507080056 48 235 0.0 0.0 0.00 0.00 0.00 89 1019.2
20260507074555 48 235 0.0 0.0 0.00 0.00 0.00 89 1019.3
20260507073057 47 235 0.0 0.0 0.00 0.00 0.00 88 1019.3
20260507071549 48 235 0.0 0.0 0.00 0.00 0.00 88 1019.1
20260507070057 48 235 0.0 0.0 0.00 0.00 0.00 87 1019.0